Regional Weather Roundup
Issued by NWS

Home | Current Version | Previous Version | Graphics & Text | Print | Product List | Glossary On
Versions: 1 2 3 4 5 6 7 8 9 10 11 12 13 14 15 16 17 18 19 20 21 22 23 24 25 26 27 28 29 30 31 32 33 34 35 36 37 38 39 40 41 42 43 44 45 46 47 48 49 50
000
ASUS43 KMKX 261121
RWRWI

WISCONSIN REGIONAL WEATHER ROUNDUP
NATIONAL WEATHER SERVICE MILWAUKEE/SULLIVAN WI
600 AM CDT SUN APR 26 2015

NOTE: "FAIR" INDICATES FEW OR NO CLOUDS BELOW 12,000 FEET WITH NO
SIGNIFICANT WEATHER AND/OR OBSTRUCTIONS TO VISIBILITY.

WIZ001-002-006>008-014>016-023>028-261200-
NORTHWEST WISCONSIN

CITY           SKY/WX    TMP DP  RH WIND       PRES   REMARKS
SUPERIOR ARPT  CLEAR     21  20  94 CALM      30.12R
ASHLAND        CLEAR     23  22  96 W5        30.12R WCI  17
HAYWARD        CLEAR     25  21  85 N6        30.08R WCI  18
SIREN          CLEAR     25  21  83 CALM      30.08R
CUMBERLAND     CLEAR     30  23  74 NE3       30.06R
RICE LAKE      CLEAR     29  22  73 NE3       30.08R
CHETEK         CLEAR     34  22  63 CALM      30.07R
LADYSMITH      CLEAR     32  23  69 N3        30.08R
EAU CLAIRE     CLEAR     30  26  85 NE5       30.04R WCI  25
MENOMONIE      CLEAR     32  24  71 N5        30.06R WCI  28
NEW RICHMOND   CLEAR     30  22  71 E3        30.05R
OSCEOLA        CLEAR     29  22  75 CALM      30.09R
$$

WIZ003>005-009-010-017-018-261200-
NORTH CENTRAL WISCONSIN

CITY           SKY/WX    TMP DP  RH WIND       PRES   REMARKS
MANITOWISH WTR CLEAR     22  21  93 CALM      30.05S
ARBOR VITAE    CLEAR     25  20  79 CALM      30.05R
WOODRUFF       CLEAR     25  20  79 CALM      30.05R
RHINELANDER    CLEAR     27  20  75 CALM      30.04S
EAGLE RIVER    CLEAR     24  19  82 CALM      30.04R
LAND O LAKES   CLEAR     22  20  93 CALM      30.06R
PHILLIPS       CLEAR     25  20  80 CALM      30.06R
TOMAHAWK       CLEAR     24  20  85 CALM      30.05S
MEDFORD        CLEAR     29  21  72 NE7       30.03S WCI  22
MERRILL        CLEAR     28  22  76 CALM      30.04S
$$

WIZ029-030-035-036-043>047-261200-
CENTRAL WISCONSIN

CITY           SKY/WX    TMP DP  RH WIND       PRES   REMARKS
WAUSAU         CLEAR     32  20  61 CALM      30.03R
MOSINEE        CLEAR     32  19  59 N8        30.04R WCI  25
MARSHFIELD     CLEAR     32  21  64 NE8       30.03R WCI  25
STEVENS POINT  CLEAR     25  19  77 CALM      30.04R
WAUPACA        CLEAR     29  22  72 N5        30.04R WCI  24
WAUTOMA        CLEAR     32  20  61 N6        30.04R WCI  26
WISC RAPIDS    CLEAR     33  19  56 NE5       30.05R WCI  29
CAMP DOUGLAS   CLEAR     21  21  99 W3        30.02R
$$

WIZ011>013-019>022-031-037>040-048>050-261200-
NORTHEAST WISCONSIN

CITY           SKY/WX    TMP DP  RH WIND       PRES   REMARKS
ANTIGO         CLEAR     27  21  78 N7        30.04R WCI  20
SHAWANO        CLEAR     35  19  52 CALM      30.05R
OCONTO         CLEAR     28  20  71 CALM      30.04R
STURGEON BAY   CLEAR     32  21  64 N8        30.05R WCI  25
GREEN BAY      CLEAR     33  21  61 N6        30.03R WCI  28
MANITOWOC      CLEAR     33  28  81 NW8       30.02R WCI  26
APPLETON       CLEAR     28  19  69 N8        30.03R WCI  20
CLINTONVILLE   CLEAR     30  21  69 CALM      30.04R
OSHKOSH        CLEAR     31  22  69 N7        30.02R WCI  24
$$

WIZ032>034-041-042-053>061-261200-
SOUTHWEST WISCONSIN

CITY           SKY/WX    TMP DP  RH WIND       PRES   REMARKS
LA CROSSE      CLEAR     31  24  75 CALM      30.03R
SPARTA         CLEAR     23  19  86 CALM      30.04R
VIROQUA        CLEAR     32  21  62 NE3       30.00R
BOSCOBEL       CLEAR     25  22  88 CALM      30.02R
PRAIRIE DU CHI CLEAR     30  26  84 CALM      30.01S
PLATTEVILLE    CLEAR     34  24  67 NE7       29.98R WCI  28
$$

WIZ056-057-062-063-064-067-068-261200-
SOUTH CENTRAL WISCONSIN

CITY           SKY/WX    TMP DP  RH WIND       PRES   REMARKS
REEDSBURG      CLEAR     30  21  71 CALM      30.02R
BARABOO/DELLS  CLEAR     31  22  67 NE5       30.01R WCI  27
LONE ROCK      CLEAR     28  22  78 CALM      30.01R
MINERAL POINT  CLEAR     36  23  60 NE9       29.98R WCI  29
MADISON        PTCLDY    32  25  75 N6        30.00R WCI  26
MIDDLETON      CLEAR     34  26  70 CALM      30.00R
WATERTOWN      CLEAR     32  27  83 N5        29.99R WCI  27
MONROE         CLEAR     32  27  80 N9        29.97R WCI  24
JANESVILLE     CLEAR     36  27  69 N6        29.96R WCI  31
$$

WIZ051-052-058>065-066-070>072-261200-
SOUTHEAST WISCONSIN

CITY           SKY/WX    TMP DP  RH WIND       PRES   REMARKS
MILWAUKEE      PTCLDY    37  31  78 N12       29.99R WCI  29
WAUKESHA       CLEAR     32  27  80 N9        30.00R WCI  24
MILWAUKEE/TIMM CLEAR     32  28  86 N6        30.00R WCI  26
RACINE         CLEAR     36  32  85 N9        29.99R WCI  29
BURLINGTON     CLEAR     32  27  83 N5        29.97R WCI  27
KENOSHA        CLEAR     34  30  85 N7        29.97R WCI  28
FOND DU LAC    CLEAR     36  25  64 NE8       30.01S WCI  30
SHEBOYGAN      CLEAR     34  24  67 N7        30.00S WCI  28
WEST BEND      FAIR      32  27  80 N5        30.00R WCI  27
JUNEAU         CLEAR     33  26  75 N7        30.01R WCI  26
$$

LSZ147-162-261200-
LAKE SUPERIOR

STATION/POSITION TIME  TEMP    WIND        PRES    WAVE
                       AIR SEA DIR/SP/G            HT/PER
                 (UTC) (F)     (DEG/KT/KT) (MB)    (FT/S)
W MID LAKE BUOY  1050   36 34   30/ 10/ 12 1020.8R   1
DEVILS ISLAND    1100   36     330/  2/  4 1020.6R
PORT WING        1040   25     150/  3/  5 1020.0R
SAXON HARBOR     1040   26        CALM     1019.3R
$$

LMZ867-665-643>646-261200-
LAKE MICHIGAN

STATION/POSITION TIME  TEMP    WIND        PRES    WAVE
                       AIR SEA DIR/SP/G            HT/PER
                 (UTC) (F)     (DEG/KT/KT) (MB)    (FT/S)
CHAMBERS ISLAND  1000   36     320/ 10/ 11 1016.6R
NORTHPORT PIER   1000   37     330/ 10/ 13 1016.3R
SISTER BAY       0932   36      10/  6/  9   N/A
KEWAUNEE LAKESHO 1000   32     310/  4/  6 1015.4R
SHEBOYGAN LAKESH 1100   37     340/ 10/ 12 1016.8R
PORT WASHINGTON  1000   36     330/  5/  8 1016.3R
MILWAUKEE LAKESH 1100   38      10/ 15/ 18   N/A
KENOSHA   LAKESH 1100   40     360/ 11/ 13 1014.9R
$$

TC  - TEMPERATURE IN CELSIUS
VSB - VISIBILITY IN STATUTE MILES
WCI - WIND CHILL INDEX
HX  - HEAT INDEX



USA.gov is the U.S. government's official web portal to all federal, state and local government web resources and services.